Regional Weather Roundup
Issued by NWS

Home | Current Version | Previous Version | Graphics & Text | Print | Product List | Glossary Off
Versions: 1 2 3 4 5 6 7 8 9 10 11 12 13 14 15 16 17 18 19 20 21 22 23 24 25 26 27 28 29 30 31 32 33 34 35 36 37 38 39 40 41 42 43 44 45 46 47 48 49 50

000
ASUS43 KDTX 231401
RWRMI
MICHIGAN HOURLY REGIONAL WEATHER ROUNDUP
NATIONAL WEATHER SERVICE DETROIT/PONTIAC MI
1000 AM EDT WED APR 23 2014

NOTE: "FAIR" INDICATES FEW OR NO CLOUDS BELOW 12,000 FEET WITH NO
SIGNIFICANT WEATHER AND/OR OBSTRUCTION TO VISIBILITY.

MIZ047>049-052>055-059>063-066>070-074>076-081>083-231500-
SOUTHEAST LOWER MICHIGAN

CITY           SKY/WX    TMP DP  RH WIND       PRES   REMARKS
ADRIAN         SUNNY     40  29  64 NE14G21   30.10R WCI  32
ALMA           SUNNY     40  23  50 N9        30.12F WCI  34
ANN ARBOR      CLOUDY    38  28  67 N12       30.09R WCI  30
BAD AXE        MOSUNNY   38  29  68 N14       30.08R WCI  30
CARO           SUNNY     42  31  66 N15       30.09R
DETROIT CITY   CLOUDY    43  28  55 N12       30.08R
DETROIT        CLOUDY    40  29  64 NW12      30.09R WCI  33
FLINT          MOSUNNY   42  28  57 N9        30.10R
GROSSE ILE     CLOUDY    39  30  70 NW10      30.07R WCI  32
HILLSDALE      SUNNY     40  28  62 N12       30.08S WCI  33
HOWELL         MOSUNNY   38  29  70 NW12      30.09S WCI  30

CITY           SKY/WX    TMP DP  RH WIND       PRES   REMARKS
JACKSON        SUNNY     41  28  60 N14       30.09S
LAMBERTVILLE   PTSUNNY   41  30  65 NW10      30.09S
LANSING        SUNNY     40  28  62 N12       30.13R WCI  33
LAPEER         CLOUDY    40  30  68 N13       30.08R WCI  32
MASON          SUNNY     39  29  66 N9        30.11S WCI  33
MONROE         CLOUDY    39  30  70 N12G18    30.08R WCI  32
MT. CLEMENS    PTSUNNY   40  28  61 N16G23    30.05R WCI  32
PONTIAC        PTSUNNY   38  27  64 N14       30.07R WCI  30
PORT HOPE        N/A     38  29  70 N6        30.07R WCI  33
PORT HURON     CLOUDY    39  30  70 NW10G17   30.06S WCI  32
TRI CITIES     SUNNY     42  26  53 N9        30.12R
TROY           CLOUDY    39  28  65 N12       30.09R WCI  32
SAGINAW HB     SUNNY     41  28  60 N12       30.11R
YPSILANTI      CLOUDY    42  29  59 N15       30.09R
$$
MIZ043>046-050>051-056>058-064>065-071>073-077>080-231500-
SOUTHWEST LOWER MICHIGAN

CITY           SKY/WX    TMP DP  RH WIND       PRES   REMARKS
BATTLE CREEK   SUNNY     40  27  59 NE8       30.12S WCI  34
BENTON HARBOR  SUNNY     38  31  76 N8        30.16R WCI  32
BIG RAPIDS     SUNNY     39  26  58 N6        30.12F WCI  35
COLDWATER      SUNNY     39  29  67 N9        30.12R WCI  33
FREMONT        FAIR      39  24  54 N10       30.15R WCI  33
HOLLAND        SUNNY     42  28  57 N8        30.17R
GRAND RAPIDS   MOSUNNY   42  26  53 N9        30.14R
IONIA          FAIR      39  27  62 N6        30.13R WCI  35
KALAMAZOO      SUNNY     41  27  57 N10       30.14R
LUDINGTON      MOSUNNY   40  28  60 N6        30.17R
MARSHALL       SUNNY     38  27  63 N8        30.11R WCI  33
MOUNT PLEASANT SUNNY     40  27  58 N6        30.11F
MUSKEGON       MOSUNNY   43  25  49 NE10      30.17R
SOUTH HAVEN    SUNNY     41  28  58 N13       30.14F
$$
MIZ016>042-231500-
NORTHERN LOWER MICHIGAN

CITY           SKY/WX    TMP DP  RH WIND       PRES   REMARKS
ALPENA         SUNNY     39  18  42 N12       30.11R WCI  32
BEAVER ISLAND  SUNNY     35  24  63 NW6       30.17S WCI  30
BELLAIRE       SUNNY     38  22  53 N5        30.15S WCI  34
CADILLAC       SUNNY     37  22  54 N12       30.11S WCI  30
CHARLEVOIX     SUNNY     35  27  71 N7        30.18S WCI  29
FRANKFORT      SUNNY     38  29  69 N5        30.17S WCI  35
GAYLORD        SUNNY     35  17  47 NW5       30.11R WCI  31
GRAYLING       SUNNY     38  18  44 N8        30.11S WCI  32
HARBOR SPRINGS SUNNY     38  18  44 N3        30.14S
HOUGHTON LAKE  SUNNY     38  19  46 N8        30.11R WCI  32
MANISTEE       SUNNY     39  28  65 NW10      30.17S WCI  32
OSCODA         SUNNY     41  20  42 N13       30.09S
PELLSTON       SUNNY     38  16  40 N7        30.15R WCI  33
ROGERS CITY    SUNNY     35  22  57 N12       30.14R WCI  27
TRAVERSE CITY  MOSUNNY   37  26  64 VRB3      30.15R
$$
MIZ007>008-015-231500-
EASTERN UPPER MICHIGAN

CITY           SKY/WX    TMP DP  RH WIND       PRES   REMARKS
KINROSS        SUNNY     36  16  44 NW12      30.13R WCI  27
MACKINAC ISLAN SUNNY     36  19  49 N5        30.14R WCI  32
NEWBERRY       SUNNY     35  17  46 N9        30.15R WCI  28
S. S. MARIE    SUNNY     37  14  38 VRB6      30.12S WCI  32
MUNISING         N/A     35  27  72 CALM      30.19S
$$
MIZ004>006-011>014-085-231500-
CENTRAL UPPER MICHIGAN

CITY           SKY/WX    TMP DP  RH WIND       PRES   REMARKS
MANISTIQUE     SUNNY     39  21  50 N6        30.16F WCI  34
ESCANABA       SUNNY     39  25  56 NW8       30.18S WCI  34
MENOMINEE      MOSUNNY   39  23  52 NE7       30.19R WCI  34
SAWYER-GWINN   SUNNY     37  25  60 N5        30.17R WCI  34
$$
MIZ001>003-009>011-084-231500-
WESTERN UPPER MICHIGAN

CITY           SKY/WX    TMP DP  RH WIND       PRES   REMARKS
IRON MOUNTAIN  MOSUNNY   39  24  55 N3        30.16S
HOUGHTON       SUNNY     42  22  44 CALM      30.17R
COPPER HARBOR    N/A     37  28  70 N9        30.18S WCI  30
IRONWOOD       MOSUNNY   41  25  52 CALM      30.12F
$$

ABBREVIATIONS USED IN REMARKS
   TC - TEMPERATURE IN CELSIUS
  WCI - WIND CHILL INDEX
   HX - HEAT INDEX
  VSB - VISIBILITY




USA.gov is the U.S. government's official web portal to all federal, state and local government web resources and services.